Location: Baia Mare
(47.6567°N, 23.5850°E)
Time: 14:04:40
(UTC+03:00)

ISS - Pass Details

Date: 29 July 2019
Orbit: 409 x 418 km, 51.6° (Epoch: 21 July)

Event Time Altitude Azimuth Distance (km) Brightness Sun altitude
Rises 23:05:17 0° 293° (WNW) 2,356 1.1 -16.0°
Reaches altitude 10° 23:07:23 10° 292° (WNW) 1,489 -0.1 -16.2°
Maximum altitude 23:10:43 74° 207° (SSW) 433 -3.9 -16.5°
Enters shadow 23:11:33 46° 135° (SE) 561 -3.6 -16.6°
